Location: Julian California
(33.0790°N, 116.6010°W)
Time: 21:15:41
(UTC-07:00)

Cosmos 1626 Rocket - Pass Details

Date: 14 June 2018
Orbit: 603 x 632 km, 82.5° (Epoch: 19 October)

Event Time Altitude Azimuth Distance (km) Brightness Sun altitude
Exits shadow 21:33:57 - 198° (SSW) 2,211 6.1 -17.3°
Reaches altitude 10° 21:34:29 10° 199° (SSW) 2,000 5.9 -17.3°
Maximum altitude 21:38:51 56° 278° (W) 753 4.2 -18.0°
Drops below altitude 10° 21:43:14 10° 357° (N) 2,012 6.9 -18.6°
Sets 21:45:31 0° 2° (N) 2,921 7.7 -19.0°
